When you browse on this site, cookies collect data to enhance your experience and personalize the content and advertising you see.
Visit our Privacy Policy to learn more. By continuing to use the site, you agree to this use of cookies and data.
  • In Österreich
  • Länderverzeichnis
  • Für 7 Tage
  • Wassertemperatur
  • Wetterkarte
  • News
  • Widgets
  • user-avatar
    Anmelden

    Stündliche Wetter La Vega

    Heute, 23 September, Montag

    Zeit Temperatur Niederschläge Wind Luftdruck Luftfeuchtigkeit
    00:00 +11°C° 0.1 mm 1 m/S 570 mmHg 87%
    01:00 +11°C° 0 mm 1 m/S 570 mmHg 86%
    02:00 +11°C° 0 mm 1 m/S 570 mmHg 86%
    03:00 +11°C° 0 mm 1 m/S 569 mmHg 86%
    04:00 +11°C° 0 mm 1 m/S 569 mmHg 87%
    05:00 +11°C° 0 mm 1 m/S 570 mmHg 85%
    06:00 +12°C° 0 mm 1 m/S 571 mmHg 83%
    07:00 +12°C° 0 mm 1 m/S 571 mmHg 82%
    08:00 +15°C° 0 mm 1 m/S 572 mmHg 73%
    09:00 +18°C° 0 mm 1 m/S 574 mmHg 64%
    10:00 +19°C° 0 mm 2 m/S 575 mmHg 56%
    11:00 +20°C° 0.1 mm 2 m/S 574 mmHg 53%
    12:00 +21°C° 0.1 mm 2 m/S 574 mmHg 51%
    13:00 +21°C° 0.1 mm 2 m/S 574 mmHg 48%
    14:00 +21°C° 0.2 mm 2 m/S 573 mmHg 52%
    15:00 +20°C° 0.2 mm 2 m/S 572 mmHg 56%
    16:00 +19°C° 0.2 mm 2 m/S 572 mmHg 61%
    17:00 +17°C° 0.3 mm 2 m/S 571 mmHg 69%
    18:00 +15°C° 0.3 mm 1 m/S 570 mmHg 78%
    19:00 +13°C° 0.3 mm 1 m/S 569 mmHg 87%
    20:00 +12°C° 0 mm 1 m/S 570 mmHg 86%
    21:00 +12°C° 0 mm 1 m/S 570 mmHg 85%
    22:00 +12°C° 0 mm 1 m/S 570 mmHg 84%
    23:00 +12°C° 0 mm 1 m/S 570 mmHg 84%

    Morgen, 24 September, Dienstag

    Zeit Temperatur Niederschläge Wind Luftdruck Luftfeuchtigkeit
    00:00 +11°C° 0 mm 1 m/S 570 mmHg 85%
    01:00 +11°C° 0 mm 1 m/S 570 mmHg 85%
    02:00 +11°C° 0 mm 1 m/S 570 mmHg 85%
    03:00 +12°C° 0 mm 1 m/S 569 mmHg 85%
    04:00 +12°C° 0 mm 1 m/S 569 mmHg 85%
    05:00 +12°C° 0.2 mm 1 m/S 570 mmHg 85%
    06:00 +12°C° 0.2 mm 1 m/S 570 mmHg 84%
    07:00 +13°C° 0.2 mm 1 m/S 571 mmHg 84%
    08:00 +14°C° 0.4 mm 1 m/S 572 mmHg 80%
    09:00 +15°C° 0.4 mm 1 m/S 573 mmHg 77%
    10:00 +18°C° 0.4 mm 1 m/S 574 mmHg 74%
    11:00 +18°C° 0.3 mm 1 m/S 573 mmHg 72%
    12:00 +19°C° 0.3 mm 1 m/S 573 mmHg 69%
    13:00 +19°C° 0.3 mm 1 m/S 572 mmHg 67%
    14:00 +19°C° 0.2 mm 1 m/S 572 mmHg 66%
    15:00 +20°C° 0.2 mm 1 m/S 572 mmHg 64%
    16:00 +20°C° 0.2 mm 1 m/S 572 mmHg 63%
    17:00 +18°C° 0.5 mm 1 m/S 571 mmHg 72%
    18:00 +15°C° 0.5 mm 1 m/S 570 mmHg 81%
    19:00 +13°C° 0.5 mm 1 m/S 570 mmHg 90%
    20:00 +13°C° 0.3 mm 1 m/S 570 mmHg 89%
    21:00 +12°C° 0.3 mm 1 m/S 570 mmHg 88%
    22:00 +12°C° 0.3 mm 1 m/S 571 mmHg 88%
    23:00 +12°C° 0.2 mm 1 m/S 570 mmHg 88%

    übermorgen, 25 September, Mittwoch

    Zeit Temperatur Niederschläge Wind Luftdruck Luftfeuchtigkeit
    00:00 +11°C° 0.2 mm 1 m/S 570 mmHg 88%
    01:00 +11°C° 0.2 mm 1 m/S 570 mmHg 88%
    02:00 +11°C° 0.1 mm 1 m/S 569 mmHg 88%
    03:00 +11°C° 0.1 mm 1 m/S 569 mmHg 88%
    04:00 +11°C° 0.1 mm 1 m/S 569 mmHg 88%
    05:00 +12°C° 0 mm 1 m/S 570 mmHg 86%
    06:00 +12°C° 0 mm 1 m/S 571 mmHg 85%
    07:00 +13°C° 0 mm 1 m/S 571 mmHg 84%
    08:00 +14°C° 0.1 mm 1 m/S 572 mmHg 79%
    09:00 +16°C° 0.1 mm 1 m/S 573 mmHg 75%
    10:00 +19°C° 0.1 mm 1 m/S 574 mmHg 71%
    11:00 +20°C° 0.8 mm 1 m/S 574 mmHg 70%
    12:00 +20°C° 0.8 mm 1 m/S 574 mmHg 70%
    13:00 +21°C° 0.8 mm 1 m/S 573 mmHg 69%
    14:00 +20°C° 1 mm 1 m/S 573 mmHg 73%
    15:00 +19°C° 1 mm 1 m/S 572 mmHg 76%
    16:00 +19°C° 1 mm 1 m/S 571 mmHg 79%
    17:00 +16°C° 0.8 mm 1 m/S 571 mmHg 83%
    18:00 +15°C° 0.8 mm 1 m/S 570 mmHg 87%
    19:00 +13°C° 0.8 mm 1 m/S 570 mmHg 91%
    20:00 +13°C° 0.2 mm 1 m/S 570 mmHg 91%
    21:00 +13°C° 0.2 mm 1 m/S 571 mmHg 90%
    22:00 +13°C° 0.2 mm 1 m/S 571 mmHg 89%
    23:00 +12°C° 0 mm 1 m/S 570 mmHg 89%

    26 September, Donnerstag

    Zeit Temperatur Niederschläge Wind Luftdruck Luftfeuchtigkeit
    00:00 +12°C° 0 mm 1 m/S 570 mmHg 89%
    01:00 +11°C° 0 mm 1 m/S 569 mmHg 89%
    02:00 +12°C° 0 mm 1 m/S 569 mmHg 89%
    03:00 +12°C° 0 mm 1 m/S 569 mmHg 88%
    04:00 +12°C° 0 mm 1 m/S 569 mmHg 87%
    05:00 +12°C° 0 mm 1 m/S 570 mmHg 86%
    06:00 +12°C° 0 mm 1 m/S 570 mmHg 85%
    07:00 +13°C° 0 mm 1 m/S 571 mmHg 84%
    08:00 +14°C° 0 mm 1 m/S 572 mmHg 79%
    09:00 +16°C° 0 mm 1 m/S 573 mmHg 73%
    10:00 +19°C° 0 mm 1 m/S 574 mmHg 68%
    11:00 +20°C° 0.1 mm 1 m/S 573 mmHg 65%
    12:00 +20°C° 0.1 mm 1 m/S 573 mmHg 62%
    13:00 +20°C° 0.1 mm 2 m/S 573 mmHg 59%
    14:00 +20°C° 0.3 mm 2 m/S 572 mmHg 61%
    15:00 +19°C° 0.3 mm 2 m/S 572 mmHg 63%
    16:00 +19°C° 0.3 mm 2 m/S 571 mmHg 66%
    17:00 +17°C° 0.7 mm 2 m/S 571 mmHg 73%
    18:00 +15°C° 0.7 mm 1 m/S 570 mmHg 81%
    19:00 +13°C° 0.7 mm 1 m/S 569 mmHg 88%
    20:00 +12°C° 0.2 mm 1 m/S 569 mmHg 88%
    21:00 +12°C° 0.2 mm 1 m/S 569 mmHg 87%
    22:00 +11°C° 0.2 mm 1 m/S 570 mmHg 87%
    23:00 +11°C° 0.1 mm 1 m/S 569 mmHg 86%

    27 September, Freitag

    Zeit Temperatur Niederschläge Wind Luftdruck Luftfeuchtigkeit
    00:00 +11°C° 0.1 mm 1 m/S 569 mmHg 85%
    01:00 +11°C° 0.1 mm 1 m/S 569 mmHg 84%
    02:00 +11°C° 0 mm 1 m/S 569 mmHg 84%
    03:00 +11°C° 0 mm 1 m/S 568 mmHg 84%
    04:00 +10°C° 0 mm 1 m/S 568 mmHg 83%
    05:00 +11°C° 0 mm 1 m/S 569 mmHg 82%
    06:00 +12°C° 0 mm 1 m/S 570 mmHg 80%
    07:00 +13°C° 0 mm 1 m/S 571 mmHg 78%
    08:00 +15°C° 0 mm 1 m/S 572 mmHg 72%
    09:00 +18°C° 0 mm 1 m/S 573 mmHg 65%
    10:00 +20°C° 0 mm 1 m/S 574 mmHg 58%
    11:00 +21°C° 0.2 mm 1 m/S 574 mmHg 57%
    12:00 +22°C° 0.2 mm 1 m/S 574 mmHg 55%
    13:00 +22°C° 0.2 mm 1 m/S 573 mmHg 54%
    14:00 +21°C° 0.5 mm 1 m/S 572 mmHg 58%
    15:00 +21°C° 0.5 mm 1 m/S 572 mmHg 63%
    16:00 +20°C° 0.5 mm 1 m/S 571 mmHg 67%
    17:00 +18°C° 0.9 mm 1 m/S 570 mmHg 76%
    18:00 +15°C° 0.9 mm 1 m/S 569 mmHg 84%
    19:00 +13°C° 0.9 mm 1 m/S 569 mmHg 93%
    20:00 +12°C° 0.3 mm 1 m/S 569 mmHg 92%
    21:00 +12°C° 0.3 mm 1 m/S 569 mmHg 91%
    22:00 +11°C° 0.3 mm 1 m/S 569 mmHg 90%
    23:00 +11°C° 0.1 mm 1 m/S 569 mmHg 90%

    28 September, Samstag

    Zeit Temperatur Niederschläge Wind Luftdruck Luftfeuchtigkeit
    00:00 +11°C° 0.1 mm 1 m/S 569 mmHg 90%
    01:00 +11°C° 0.1 mm 1 m/S 569 mmHg 90%
    02:00 +11°C° 0.1 mm 1 m/S 568 mmHg 89%
    03:00 +10°C° 0.1 mm 1 m/S 568 mmHg 89%
    04:00 +10°C° 0.1 mm 1 m/S 568 mmHg 88%
    05:00 +11°C° 0 mm 1 m/S 569 mmHg 86%
    06:00 +12°C° 0 mm 1 m/S 569 mmHg 84%
    07:00 +12°C° 0 mm 0 m/S 570 mmHg 81%
    08:00 +15°C° 0 mm 1 m/S 571 mmHg 74%
    09:00 +18°C° 0 mm 1 m/S 573 mmHg 66%
    10:00 +21°C° 0 mm 1 m/S 574 mmHg 59%
    11:00 +21°C° 0.3 mm 1 m/S 573 mmHg 60%
    12:00 +21°C° 0.3 mm 1 m/S 573 mmHg 60%
    13:00 +22°C° 0.3 mm 1 m/S 572 mmHg 61%
    14:00 +21°C° 1.1 mm 1 m/S 571 mmHg 68%
    15:00 +19°C° 1.1 mm 1 m/S 571 mmHg 74%
    16:00 +18°C° 1.1 mm 1 m/S 570 mmHg 81%
    17:00 +16°C° 1.4 mm 1 m/S 569 mmHg 85%
    18:00 +15°C° 1.4 mm 1 m/S 569 mmHg 90%
    19:00 +13°C° 1.4 mm 1 m/S 569 mmHg 94%
    20:00 +13°C° 0.4 mm 1 m/S 569 mmHg 94%
    21:00 +12°C° 0.4 mm 1 m/S 569 mmHg 94%
    22:00 +12°C° 0.4 mm 1 m/S 569 mmHg 94%
    23:00 +11°C° 0.2 mm 0 m/S 569 mmHg 94%
    Mehr zeigen